User: anonymous   Login
Location: Caltech
(34.1382°N, 118.1253°W)
Time: 17:34:23
(UTC-07:00)
Language:

UOSAT-12 - Orbit

View from above orbital plane
View from above orbital plane
View from above satellite
View from above satellite

Ground track
Ground track

The orbit data is extracted from the following two-line orbital elements,

1 25693U 99021A   15117.27131100  .00000408  00000-0  71403-4 0  9997
2 25693 064.5577 015.0907 0044923 247.0213 252.1821 14.80416432864400
Epoch (UTC): 27 April 2015 06:30:41
Eccentricity: 0.0044923
inclination: 64.5577°
perigee height: 596 km
apogee height: 659 km
right ascension of ascending node: 15.0907°
argument of perigee: 247.0213°
revolutions per day: 14.80416432
mean anomaly at epoch: 252.1821°
orbit number at epoch: 86440

The dashed part of the orbit path shows where the satellite is in the earth's shadow,  

DLR